Location: Bremen
(53.0793°N, 8.8017°E)
Time: 04:49:49
(UTC+01:00)

Vanguard 1 Rocket - Pass Details

Date: 12 December 2021
Orbit: 651 x 4225 km, 34.3° (Epoch: 26 January)

Event Time Altitude Azimuth Distance (km) Brightness Sun altitude
Rises 00:09:46 0° 195° (SSW) 3,615 - -59.9°
Reaches altitude 10° 00:13:40 10° 168° (SSE) 3,124 - -60.0°
Maximum altitude 00:17:08 13° 141° (SE) 3,296 - -60.0°
Drops below altitude 10° 00:21:27 10° 116° (ESE) 4,122 - -60.0°
Exits shadow 00:27:16 - 98° (E) 5,664 11.4 -59.9°
Sets 00:28:31 0° 95° (E) 6,012 11.6 -59.9°
